Time,TemperatureF,DewpointF,PressureIn,WindDirection,WindDirectionDegrees,WindSpeedMPH,WindSpeedGustMPH,Humidity,HourlyPrecipIn,Conditions,Clouds,dailyrainin,SolarRadiationWatts/m^2,SoftwareType,DateUTC
2013-02-15 00:01:00,52.0,14.0,-100.00,NNE,26,13.0,23.0,22,0.00,,,0.00,0.000000,,2013-02-15 08:01:00,
2013-02-15 00:11:00,52.0,14.0,-100.00,NNE,26,13.0,23.0,22,0.00,,,0.00,0.000000,,2013-02-15 08:11:00,
2013-02-15 00:21:00,52.0,14.0,-100.00,NNE,26,13.0,23.0,22,0.00,,,0.00,0.000000,,2013-02-15 08:21:00,
2013-02-15 00:53:00,49.0,15.0,-100.00,North,356,8.0,18.0,25,0.00,,,0.00,0.000000,,2013-02-15 08:53:00,
2013-02-15 01:01:00,49.0,15.0,-100.00,North,356,8.0,18.0,25,0.00,,,0.00,0.000000,,2013-02-15 09:01:00,
2013-02-15 01:12:00,49.0,15.0,-100.00,North,356,8.0,18.0,25,0.00,,,0.00,0.000000,,2013-02-15 09:12:00,
2013-02-15 01:21:00,49.0,15.0,-100.00,North,356,8.0,18.0,25,0.00,,,0.00,0.000000,,2013-02-15 09:21:00,
2013-02-15 01:52:00,46.0,14.0,-100.00,NNW,345,7.0,11.0,27,0.00,,,0.00,0.000000,,2013-02-15 09:52:00,
2013-02-15 02:01:00,46.0,14.0,-100.00,NNW,345,7.0,11.0,27,0.00,,,0.00,0.000000,,2013-02-15 10:01:00,
2013-02-15 02:11:00,46.0,14.0,-100.00,NNW,345,7.0,11.0,27,0.00,,,0.00,0.000000,,2013-02-15 10:11:00,
2013-02-15 02:21:00,46.0,14.0,-100.00,NNW,345,7.0,11.0,27,0.00,,,0.00,0.000000,,2013-02-15 10:21:00,
2013-02-15 02:52:00,46.0,15.0,-100.00,North,8,8.0,13.0,28,0.00,,,0.00,0.000000,,2013-02-15 10:52:00,
2013-02-15 03:01:00,46.0,15.0,-100.00,North,8,8.0,13.0,28,0.00,,,0.00,0.000000,,2013-02-15 11:01:00,
2013-02-15 03:11:00,46.0,15.0,-100.00,North,8,8.0,13.0,28,0.00,,,0.00,0.000000,,2013-02-15 11:11:00,
2013-02-15 03:22:00,46.0,15.0,-100.00,North,8,8.0,13.0,28,0.00,,,0.00,0.000000,,2013-02-15 11:22:00,
2013-02-15 03:52:00,45.0,15.0,-100.00,North,11,12.0,15.0,29,0.00,,,0.00,0.000000,,2013-02-15 11:52:00,
2013-02-15 04:01:00,45.0,15.0,-100.00,North,11,12.0,15.0,29,0.00,,,0.00,0.000000,,2013-02-15 12:01:00,
2013-02-15 04:11:00,45.0,15.0,-100.00,North,11,12.0,15.0,29,0.00,,,0.00,0.000000,,2013-02-15 12:11:00,
2013-02-15 04:21:00,45.0,15.0,-100.00,North,11,12.0,15.0,29,0.00,,,0.00,0.000000,,2013-02-15 12:21:00,
2013-02-15 04:52:00,45.0,15.0,-100.00,NNE,16,17.0,23.0,29,0.00,,,0.00,0.000000,,2013-02-15 12:52:00,
2013-02-15 05:02:00,45.0,15.0,-100.00,NNE,16,17.0,23.0,29,0.00,,,0.00,0.000000,,2013-02-15 13:02:00,
2013-02-15 05:11:00,45.0,15.0,-100.00,NNE,16,17.0,23.0,29,0.00,,,0.00,0.000000,,2013-02-15 13:11:00,
2013-02-15 05:21:00,45.0,15.0,-100.00,NNE,16,17.0,23.0,29,0.00,,,0.00,0.000000,,2013-02-15 13:21:00,
2013-02-15 05:52:00,45.0,15.0,-100.00,NNE,22,16.0,23.0,29,0.00,,,0.00,0.000000,,2013-02-15 13:52:00,
2013-02-15 06:01:00,45.0,15.0,-100.00,NNE,22,16.0,23.0,29,0.00,,,0.00,0.000000,,2013-02-15 14:01:00,
2013-02-15 06:11:00,45.0,15.0,-100.00,NNE,22,16.0,23.0,29,0.00,,,0.00,0.000000,,2013-02-15 14:11:00,
2013-02-15 06:21:00,45.0,15.0,-100.00,NNE,22,16.0,23.0,29,0.00,,,0.00,0.000000,,2013-02-15 14:21:00,
2013-02-15 06:52:00,47.0,15.0,-100.00,NNE,29,13.0,25.0,27,0.00,,,0.00,0.000000,,2013-02-15 14:52:00,
2013-02-15 07:01:00,47.0,15.0,-100.00,NNE,29,13.0,25.0,27,0.00,,,0.00,0.000000,,2013-02-15 15:01:00,
2013-02-15 07:11:00,47.0,15.0,-100.00,NNE,29,13.0,25.0,27,0.00,,,0.00,0.000000,,2013-02-15 15:11:00,
2013-02-15 07:21:00,47.0,15.0,-100.00,NNE,29,13.0,25.0,27,0.00,,,0.00,0.000000,,2013-02-15 15:21:00,
2013-02-15 07:52:00,49.0,14.0,-100.00,NNE,26,17.0,26.0,24,0.00,,,0.00,43.000000,,2013-02-15 15:52:00,
2013-02-15 08:01:00,49.0,14.0,-100.00,NNE,26,17.0,26.0,24,0.00,,,0.00,43.000000,,2013-02-15 16:01:00,
2013-02-15 08:11:00,49.0,14.0,-100.00,NNE,26,17.0,26.0,24,0.00,,,0.00,43.000000,,2013-02-15 16:11:00,
2013-02-15 08:22:00,49.0,14.0,-100.00,NNE,26,17.0,26.0,24,0.00,,,0.00,43.000000,,2013-02-15 16:22:00,
2013-02-15 08:52:00,48.0,12.0,-100.00,NNE,26,16.0,27.0,23,0.00,,,0.00,265.000000,,2013-02-15 16:52:00,
2013-02-15 09:01:00,48.0,12.0,-100.00,NNE,26,16.0,27.0,23,0.00,,,0.00,265.000000,,2013-02-15 17:01:00,
2013-02-15 09:11:00,48.0,12.0,-100.00,NNE,26,16.0,27.0,23,0.00,,,0.00,265.000000,,2013-02-15 17:11:00,
2013-02-15 09:21:00,48.0,12.0,-100.00,NNE,26,16.0,27.0,23,0.00,,,0.00,265.000000,,2013-02-15 17:21:00,
2013-02-15 09:52:00,52.0,12.0,-100.00,NE,36,15.0,29.0,20,0.00,,,0.00,499.000000,,2013-02-15 17:52:00,
2013-02-15 10:01:00,52.0,12.0,-100.00,NE,36,15.0,29.0,20,0.00,,,0.00,499.000000,,2013-02-15 18:01:00,
2013-02-15 10:11:00,52.0,12.0,-100.00,NE,36,15.0,29.0,20,0.00,,,0.00,499.000000,,2013-02-15 18:11:00,
2013-02-15 10:21:00,52.0,12.0,-100.00,NE,36,15.0,29.0,20,0.00,,,0.00,499.000000,,2013-02-15 18:21:00,
2013-02-15 10:52:00,54.0,10.0,-100.00,NNE,26,14.0,29.0,17,0.00,,,0.00,697.000000,,2013-02-15 18:52:00,
2013-02-15 11:01:00,54.0,10.0,-100.00,NNE,26,14.0,29.0,17,0.00,,,0.00,697.000000,,2013-02-15 19:01:00,
2013-02-15 11:11:00,54.0,10.0,-100.00,NNE,26,14.0,29.0,17,0.00,,,0.00,697.000000,,2013-02-15 19:11:00,
2013-02-15 11:21:00,54.0,10.0,-100.00,NNE,26,14.0,29.0,17,0.00,,,0.00,697.000000,,2013-02-15 19:21:00,
2013-02-15 11:52:00,55.0,7.0,-100.00,NNE,26,17.0,30.0,14,0.00,,,0.00,833.000000,,2013-02-15 19:52:00,
2013-02-15 12:01:00,55.0,7.0,-100.00,NNE,26,17.0,30.0,14,0.00,,,0.00,833.000000,,2013-02-15 20:01:00,
2013-02-15 12:52:00,57.0,5.0,-100.00,NE,39,17.0,27.0,12,0.00,,,0.00,893.000000,,2013-02-15 20:52:00,
2013-02-15 13:01:00,57.0,5.0,-100.00,NE,39,17.0,27.0,12,0.00,,,0.00,893.000000,,2013-02-15 21:01:00,
2013-02-15 13:52:00,59.0,5.0,-100.00,NE,48,13.0,26.0,11,0.00,,,0.00,873.000000,,2013-02-15 21:52:00,
2013-02-15 14:02:00,59.0,5.0,-100.00,NE,48,13.0,26.0,11,0.00,,,0.00,873.000000,,2013-02-15 22:02:00,
2013-02-15 14:52:00,60.0,3.0,-100.00,NE,43,14.0,25.0,10,0.00,,,0.00,772.000000,,2013-02-15 22:52:00,
2013-02-15 15:02:00,60.0,3.0,-100.00,NE,43,14.0,25.0,10,0.00,,,0.00,772.000000,,2013-02-15 23:02:00,
2013-02-15 15:52:00,59.0,0.0,-100.00,East,85,13.0,29.0,9,0.00,,,-99.99,603.000000,,2013-02-15 23:52:00,
2013-02-15 16:02:00,59.0,0.0,-100.00,East,85,13.0,29.0,9,0.00,,,-99.99,603.000000,,2013-02-16 00:02:00,
2013-02-15 16:52:00,58.0,-3.0,-100.00,East,88,12.0,19.0,8,0.00,,,0.00,379.000000,,2013-02-16 00:52:00,
2013-02-15 17:02:00,58.0,-3.0,-100.00,East,88,12.0,19.0,8,0.00,,,0.00,379.000000,,2013-02-16 01:02:00,
2013-02-15 17:52:00,55.0,-1.0,-100.00,East,92,14.0,20.0,10,0.00,,,0.00,72.000000,,2013-02-16 01:52:00,
2013-02-15 18:01:00,55.0,-1.0,-100.00,East,92,14.0,20.0,10,0.00,,,0.00,72.000000,,2013-02-16 02:01:00,
2013-02-15 18:52:00,53.0,0.0,-100.00,ESE,112,12.0,18.0,11,0.00,,,0.00,1.000000,,2013-02-16 02:52:00,
2013-02-15 19:01:00,53.0,0.0,-100.00,ESE,112,12.0,18.0,11,0.00,,,0.00,1.000000,,2013-02-16 03:01:00,
2013-02-15 19:52:00,53.0,0.0,-100.00,East,83,12.0,17.0,11,0.00,,,0.00,0.000000,,2013-02-16 03:52:00,
2013-02-15 20:01:00,53.0,0.0,-100.00,East,83,12.0,17.0,11,0.00,,,0.00,0.000000,,2013-02-16 04:01:00,
2013-02-15 20:52:00,55.0,1.0,-100.00,ENE,74,12.0,17.0,11,0.00,,,0.00,0.000000,,2013-02-16 04:52:00,
2013-02-15 21:01:00,55.0,1.0,-100.00,ENE,74,12.0,17.0,11,0.00,,,0.00,0.000000,,2013-02-16 05:01:00,
2013-02-15 21:11:00,55.0,1.0,-100.00,ENE,74,12.0,17.0,11,0.00,,,0.00,0.000000,,2013-02-16 05:11:00,
2013-02-15 21:21:00,55.0,1.0,-100.00,ENE,74,12.0,17.0,11,0.00,,,0.00,0.000000,,2013-02-16 05:21:00,
2013-02-15 21:52:00,55.0,-1.0,-100.00,ENE,62,9.0,17.0,10,0.00,,,-99.99,0.000000,,2013-02-16 05:52:00,
2013-02-15 22:01:00,55.0,-1.0,-100.00,ENE,62,9.0,17.0,10,0.00,,,-99.99,0.000000,,2013-02-16 06:01:00,
2013-02-15 22:52:00,53.0,0.0,-100.00,ENE,60,11.0,20.0,11,0.00,,,0.00,0.000000,,2013-02-16 06:52:00,
2013-02-15 23:02:00,53.0,0.0,-100.00,ENE,60,11.0,20.0,11,0.00,,,0.00,0.000000,,2013-02-16 07:02:00,
2013-02-15 23:53:00,51.0,0.0,-100.00,ENE,69,7.0,15.0,12,0.00,,,0.00,0.000000,,2013-02-16 07:53:00,